Regional Weather Roundup
Issued by NWS Portland, ME

Current Version | Previous Version | Text Only | Print | Product List | Glossary Off
Versions: 1 2 3 4 5 6 7 8 9 10 11 12 13 14 15 16 17 18 19 20 21 22 23 24 25 26 27 28 29 30 31 32 33 34 35 36 37 38 39 40 41 42 43 44 45 46 47 48 49 50
000 ASUS41 KGYX 261605 RWRGYX WEATHER ROUNDUP FOR MAINE AND NEW HAMPSHIRE NATIONAL WEATHER SERVICE GRAY ME 1200 PM EDT SUN MAR 26 2017 MEZ002-005-006-010-012-015-018-020-021-024-026-027-029-261700- MAINE CITY SKY/WX TMP DP RH WIND PRES REMARKS PORTLAND MOSUNNY 33 9 36 E8 30.58F SANFORD SUNNY 35 13 40 VRB5 30.56F BAR HARBOR SUNNY 31 5 33 CALM 30.57F WISCASSET SUNNY 35 3 26 CALM 30.59F ROCKLAND SUNNY 30 9 41 E5 30.58F FRYEBURG SUNNY 36 3 25 SE7 30.54F AUGUSTA SUNNY 31 -1 25 CALM 30.56F WATERVILLE SUNNY 31 3 30 CALM 30.54F BANGOR MOSUNNY 31 2 29 N5 30.57F GREENVILLE N/A 28 -4 25 VRB3 30.45F MILLINOCKET SUNNY 29 -6 22 CALM 30.56F HOULTON SUNNY 24 1 36 W5 30.54F PRESQUE ISLE SUNNY 22 1 40 N7 30.55F FRENCHVILLE SUNNY 20 -6 31 NW13G20 30.49F WCI 7 CARIBOU SUNNY 23 -1 35 N5 30.52F $$ NHZ002-005-008-009-011-012-014-261700- NEW HAMPSHIRE CITY SKY/WX TMP DP RH WIND PRES REMARKS PORTSMOUTH PTSUNNY 35 18 50 NE10 30.57R ROCHESTER CLOUDY 36 13 38 SE8 30.55S NASHUA MOSUNNY 39 23 52 E7 30.54F MANCHESTER CLOUDY 38 21 50 E9 30.53F CONCORD CLOUDY 37 17 44 E8 30.54F LACONIA MOSUNNY 34 11 38 N7 30.54S PLYMOUTH FAIR 37 7 28 E6 30.52F BERLIN SUNNY 35 4 27 CALM 30.47F WHITEFIELD SUNNY 36 7 29 CALM 30.46F JAFFREY CLOUDY 34 18 52 SE6 30.49S KEENE CLOUDY 36 19 50 VRB3 30.52S LEBANON CLOUDY 36 19 50 CALM 30.50F MT WASHINGTON MOSUNNY 27 0 31 W17 N/A WCI 14 $$ VTZ005-007-008-261700- VERMONT CITY SKY/WX TMP DP RH WIND PRES REMARKS ST JOHNSBURY N/A 34 11 38 MISG 30.47F MONTPELIER SUNNY 34 14 43 S8 30.49F BURLINGTON MOSUNNY 35 15 44 S6 30.46F $$ MAZ007-012-024-CTZ003-RIZ002-NYZ038-NYZ072-261700- SOUTHERN NEW ENGLAND AND NY CITY SKY/WX TMP DP RH WIND PRES REMARKS BOSTON PTSUNNY 40 27 59 E16 30.56F WORCESTER CLOUDY 36 22 56 E10 30.48S NANTUCKET CLOUDY 42 28 57 E20 30.50S PROVIDENCE CLOUDY 44 27 51 NE10 30.52S HARTFORD LGT RAIN 35 27 72 N5 30.52S ALBANY CLOUDY 34 23 64 E6 30.48F NEW YORK CITY CLOUDY 40 32 73 NE16 30.48R $$ ANZ081-ANZ082-ANZ150-NHZ014-MEZ023>029-261700- COASTAL MARINE OBSERVATIONS STATION/POSITION TIME TEMP WIND PRES WAVE AIR SEA DIR/SP/G HT/PER (UTC) (F) (DEG/KT/KT) (MB) (FT/S) MOUNT DESERT ROC 1600 27 1035.3F MATINICUS ROCK 1500 28 50/ 12/ 14 1035.1F ISLE OF SHOALS 1500 34 60/ 16/ 19 1034.8R JEFFREYS LEDGE 1506 41 N/A 3/ 5 CASHES LEDGE BUO 1450 34 39 1035.3 4/ 6 GEORGES BANK BUO 1450 37 40 1032.5 5/ 8 $$ .............KEY.............. WCI - WIND CHILL TC - TEMPERATURE IN CELSIUS VSB - VISIBILITY IN MILES HX - HEAT INDEX FAIR- INDICATES FEW OR NO CLOUDS BELOW 12,000 FT, WITH NO SIGNIFICANT WEATHER AND/OR OBSTRUCTIONS TO VISIBILITY.

USA.gov is the U.S. government's official web portal to all federal, state and local government web resources and services.